This demonstration page uses our WeatherBlox Daily Observations layout. Learn more.

38.88101, -77.10428

Hourly Observations for March 25, 2020

Temp ( °F °C ) Dew Point ( °F °C ) Humidity (%) Winds ( mph kmh ) Pressure ( in mb ) Visibility ( mi km ) Precip ( " mm )
12:52 am 00:52 Cloudy 49 9.4 41 5 74 74 NE 5 7 30.06 1018 10 16.0934 0 0
1:52 am 01:52 Cloudy 48 8.9 42 5.6 80 80 SE 6 9 30.05 1018 10 16.0934 0 0
2:52 am 02:52 Cloudy 48 8.9 44 6.7 86 86 ESE 10 17 29.99 1016 10 16.0934 0 0
3:20 am 03:20 Cloudy 48 8.9 43 6.1 83 83 ESE 9 15 30 1016 10 16.0934 0 0
3:39 am 03:39 Cloudy with Light Rain 48 8.9 42 5.6 80 80 E 13 20 29.98 1015 10 16.0934 0.001 0.001
3:52 am 03:52 Cloudy 48 8.9 43 6.1 83 83 E 10 17 29.97 1015 10 16.0934 0.001 0.001
4:52 am 04:52 Cloudy with Light Rain 47 8.3 42 5.6 83 83 E 9 15 29.96 1014 10 16.0934 0.001 0.001
5:52 am 05:52 Cloudy 46 7.8 41 5 83 83 ENE 9 15 29.95 1014 10 16.0934 0.01 0.254
6:52 am 06:52 Cloudy with Rain 45 7.2 42 5.6 90 90 ENE 12 19 29.94 1014 4 6.43736 0.02 0.508
7:12 am 07:12 Cloudy with Light Rain 44 6.7 42 5.6 93 93 ENE 10 17 29.94 1014 4 6.43736 0.04 1.016
7:52 am 07:52 Cloudy 45 7.2 42 5.6 90 90 NE 8 13 29.93 1014 9 14.48406 0.05 1.27
8:52 am 08:52 Cloudy 46 7.8 43 6.1 89 89 NNE 12 19 29.93 1013 10 16.0934 0 0
9:52 am 09:52 Cloudy with Light Rain 47 8.3 44 6.7 90 90 NNE 12 19 29.93 1013 7 11.26538 0.01 0.254
10:03 am 10:03 Cloudy with Light Rain 47 8.3 44 6.7 90 90 NNE 13 20 29.93 1014 1.75 2.816345 0.001 0.001
10:15 am 10:15 Cloudy with Light Rain 47 8.3 44 6.7 90 90 NNE 13 20 29.93 1014 1.5 2.41401 0.001 0.001
10:38 am 10:38 Cloudy with Light Rain 46 7.8 44 6.7 93 93 N 14 22 29.94 1014 2 3.21868 0.01 0.254
10:52 am 10:52 Cloudy with Light Rain 47 8.3 45 7.2 93 93 N 14 22 29.95 1014 2 3.21868 0.02 0.508
11:12 am 11:12 Cloudy with Light Rain 47 8.3 45 7.2 93 93 N 13 20 29.96 1015 1.75 2.816345 0.03 0.762
11:42 am 11:42 Cloudy with Light Rain 47 8.3 45 7.2 93 93 NNE 16 26 29.95 1014 2 3.21868 0.07 1.778
11:52 am 11:52 Cloudy with Light Rain 47 8.3 45 7.2 93 93 N 12 19 29.95 1014 2 3.21868 0.08 2.032
12:05 pm 12:05 Cloudy with Light Rain 47 8.3 45 7.2 93 93 N 17 28 29.96 1015 3 4.82802 0.01 0.254
12:22 pm 12:22 Cloudy with Light Rain 48 8.9 45 7.2 89 89 N 14 22 29.96 1015 5 8.0467 0.04 1.016
12:52 pm 12:52 Cloudy with Light Rain 48 8.9 44 6.7 86 86 NNE 18 30 29.96 1015 7 11.26538 0.05 1.27
1:24 pm 13:24 Cloudy with Light Rain 49 9.4 45 7.2 86 86 NNE 16 26 29.95 1014 5 8.0467 0.03 0.762
1:52 pm 13:52 Cloudy 50 10 46 7.8 86 86 NNE 15 24 29.94 1014 9 14.48406 0.04 1.016
2:52 pm 14:52 Cloudy 50 10 45 7.2 83 83 NNE 16 26 29.93 1014 10 16.0934 0 0
3:52 pm 15:52 Cloudy 50 10 45 7.2 83 83 NNE 13 20 29.95 1014 10 16.0934 0 0
4:21 pm 16:21 Cloudy with Light Drizzle 49 9.4 45 7.2 86 86 N 15 24 29.96 1015 5 8.0467 0.001 0.001
4:36 pm 16:36 Cloudy with Light Rain 48 8.9 46 7.8 93 93 NNW 13 20 29.96 1015 5 8.0467 0.001 0.001
4:48 pm 16:48 Cloudy with Light Rain 46 8 45 7 93 93 N 14 22 29.96 1015 3 4.82802 0.01 0.254
4:52 pm 16:52 Cloudy with Light Rain 47 8.3 45 7.2 93 93 N 14 22 29.96 1015 4 6.43736 0.01 0.254
4:58 pm 16:58 Cloudy with Light Rain 47 8.3 46 7.8 97 97 N 12 19 29.96 1015 4 6.43736 0.001 0.001
5:00 pm 17:00 Cloudy with Light Rain 47 8.3 46 7.8 97 97 N 13 20 29.96 1015 4 6.43736 0.001 0.001
5:03 pm 17:03 Cloudy with Light Rain 47 8.3 45 7.2 93 93 N 14 22 29.96 1015 4 6.43736 0.001 0.001
5:37 pm 17:37 Cloudy 48 8.9 45 7.2 89 89 N 13 20 29.97 1015 10 16.0934 0.001 0.001
5:52 pm 17:52 Cloudy 48 8.9 45 7.2 89 89 N 12 19 29.97 1015 10 16.0934 0.001 0.001
6:52 pm 18:52 Cloudy 48 8.9 44 6.7 86 86 N 13 20 30.01 1016 10 16.0934 0 0
6:59 pm 18:59 Cloudy 48 8.9 44 6.7 86 86 N 12 19 30.01 1016 10 16.0934 0 0
7:09 pm 19:09 Cloudy 47 8.3 44 6.7 90 90 N 13 20 30.02 1017 10 16.0934 0 0
7:20 pm 19:20 Cloudy 47 8.3 44 6.7 90 90 N 13 20 30.02 1017 10 16.0934 0 0
7:22 pm 19:22 Cloudy 47 8.3 44 6.7 90 90 N 14 22 30.02 1017 10 16.0934 0 0
7:25 pm 19:25 Cloudy 47 8.3 44 6.7 90 90 N 13 20 30.03 1017 10 16.0934 0 0
7:52 pm 19:52 Cloudy 47 8.3 44 6.7 90 90 N 13 20 30.03 1017 8 12.87472 0 0
8:40 pm 20:40 Cloudy with Mist and Fog 47 8.3 44 6.7 90 90 N 9 15 30.06 1018 6 9.65604 0 0
8:46 pm 20:46 Cloudy with Light Drizzle 46 8 45 7 93 93 N 9 15 30.06 1018 7 11.26538 0.001 0.001
8:52 pm 20:52 Cloudy 47 8.3 43 6.1 86 86 N 10 17 30.06 1018 9 14.48406 0.001 0.001
9:52 pm 21:52 Cloudy 47 8.3 42 5.6 83 83 NNE 8 13 30.08 1019 10 16.0934 0 0
10:40 pm 22:40 Cloudy 47 8.3 42 5.6 83 83 N 8 13 30.08 1019 10 16.0934 0 0
10:52 pm 22:52 Cloudy 47 8.3 42 5.6 83 83 N 7 11 30.09 1019 10 16.0934 0 0
11:45 pm 23:45 Cloudy 47 8.3 42 5.6 83 83 N 6 9 30.09 1019 10 16.0934 0 0
11:52 pm 23:52 Cloudy 47 8.3 42 5.6 83 83 N 5 7 30.09 1019 10 16.0934 0 0

Powered by AerisWeather